Weather History for 33345 - June, 2013

Change the Weather History Date:

Saturday, June 15, 2013

  Actual Average Record
Temperature  
Mean Temperature 76 °F -  
Max Temperature 86 °F - - ()
Min Temperature 67 °F - - ()
Cooling Degree Days 12    
Growing Degree Days 26 (Base 50)    
Moisture  
Dew Point 62 °F    
Average Humidity 62    
Maximum Humidity 88    
Minimum Humidity 37    
Precipitation  
Precipitation 0.00 in 0.11 in - ()
Sea Level Pressure  
Sea Level Pressure 29.93 in    
Wind  
Wind Speed 7 mph ()    
Max Wind Speed 16 mph    
Max Gust Speed -    
Visibility 8.8 miles    
Events Thunderstorm    
T = Trace of Precipitation, MM = Missing Value Source: Averaged Metar Reports

Daily Weather History Graph

Daily Weather History Graph

Search for Another Location

Airport or City:

Trip Planner

Search our weather history database for the weather conditions in past years. The results will help you decide how hot, cold, wet, or windy it might be!

Date:

Astronomy

Jun. 15, 2013 Rise Set
Actual Time 4:46 AM EEST 9:11 PM EEST
Civil Twilight 4:01 AM EEST 9:56 PM EEST
Nautical Twilight 2:54 AM EEST 11:03 PM EEST
Astronomical Twilight 1:31 AM EEST 12:26 AM EEST
Moon 11:37 AM EEST (6/15) 12:03 AM EEST (6/15)
Length of Visible Light 17h 55m
Length of Day
16h 24m
Waxing Crescent, 36% of the Moon is Illuminated
Jun 15
Waxing Crescent
Jun 16
First Quarter
Jun 23
Full
Jun 30
Last Quarter
Jul 8
New

Hourly Weather History & Observations

Time (EEST) Temp. Heat Index Dew Point Humidity Pressure Visibility Wind Dir Wind Speed Gust Speed Precip Events Conditions
12:00 AM 72 °F - 61 °F 59% 29.98 in 12 mi NE 4.5 mph - -  
12:00 AM 68.0 °F - 60.8 °F 78% 29.98 in - NE 6.7 mph - N/A   Clear
12:30 AM 69.8 °F - 60.8 °F 73% 29.98 in - ENE 4.5 mph - N/A   Clear
1:00 AM 68.0 °F - 60.8 °F 78% 29.98 in - ENE 4.5 mph - N/A   Clear
1:30 AM 68.0 °F - 60.8 °F 78% 29.98 in - East 4.5 mph - N/A   Clear
2:00 AM 68.0 °F - 60.8 °F 78% 29.98 in - ENE 4.5 mph - N/A   Clear
2:30 AM 68.0 °F - 60.8 °F 78% 29.98 in - ENE 4.5 mph - N/A   Clear
3:00 AM 70 °F - 61 °F 67% 29.99 in 12 mi North 2.2 mph - -   Scattered Clouds
3:00 AM 66.2 °F - 60.8 °F 83% 29.98 in - ENE 2.2 mph - N/A   Clear
3:30 AM 64.4 °F - 60.8 °F 88% 29.98 in - East 2.2 mph - N/A   Clear
4:00 AM 64.4 °F - 60.8 °F 88% 29.98 in - Calm Calm - N/A   Clear
4:30 AM 66.2 °F - 60.8 °F 83% 29.98 in - NNE 4.5 mph - N/A   Clear
5:00 AM 66.2 °F - 60.8 °F 83% 29.98 in - East 2.2 mph - N/A   Clear
5:30 AM 64.4 °F - 60.8 °F 88% 29.98 in - Variable 2.2 mph - N/A   Clear
6:00 AM 68 °F - 61 °F 73% 29.97 in 12 mi NNE 2.2 mph - -   Partly Cloudy
6:00 AM 66.2 °F - 62.6 °F 88% 29.98 in - Calm Calm - N/A   Clear
6:30 AM 71.6 °F - 64.4 °F 78% 29.98 in - Variable 2.2 mph - N/A   Clear
7:00 AM 73.4 °F - 64.4 °F 73% 29.98 in - Variable 2.2 mph - N/A   Clear
7:30 AM 75.2 °F - 64.4 °F 69% 29.98 in - North 4.5 mph - N/A   Clear
8:00 AM 77.0 °F - 64.4 °F 65% 29.98 in - North 4.5 mph - N/A   Clear
8:30 AM 77.0 °F - 62.6 °F 61% 29.98 in - NNE 8.9 mph - N/A   Clear
9:00 AM 78 °F - 65 °F 56% 29.95 in 12 mi NE 6.7 mph - -   Partly Cloudy
9:00 AM 78.8 °F - 64.4 °F 61% 29.98 in - North 8.9 mph - N/A   Clear
9:30 AM 77.0 °F - 62.6 °F 61% 29.98 in - NE 11.2 mph - N/A   Clear
10:00 AM 78.8 °F - 64.4 °F 61% 29.95 in - NNE 13.4 mph - N/A   Clear
10:30 AM 78.8 °F - 64.4 °F 61% 29.95 in - NNE 13.4 mph - N/A   Clear
11:00 AM 78.8 °F - 64.4 °F 61% 29.95 in - NE 11.2 mph - N/A   Clear
11:30 AM 78.8 °F - 64.4 °F 61% 29.95 in - NE 11.2 mph - N/A   Clear
12:00 PM 80 °F - 64 °F 48% 29.92 in 12 mi NNE 8.9 mph - -   Partly Cloudy
12:00 PM 80.6 °F 82.3 °F 64.4 °F 58% 29.95 in - NNE 11.2 mph - N/A   Clear
12:30 PM 82.4 °F 83.9 °F 64.4 °F 54% 29.95 in 6.2 mi NNE 15.7 mph - N/A   Mostly Cloudy
1:00 PM 82.4 °F 83.9 °F 64.4 °F 54% 29.92 in - North 13.4 mph - N/A   Clear
1:30 PM 84.2 °F 85.6 °F 64.4 °F 51% 29.92 in - NE 15.7 mph - N/A   Clear
2:00 PM 84.2 °F 85.6 °F 64.4 °F 51% 29.92 in - NNE 13.4 mph - N/A   Clear
2:30 PM 84.2 °F 85.6 °F 64.4 °F 51% 29.92 in - NNE 15.7 mph - N/A   Clear
3:00 PM 85 °F - 63 °F 37% 29.88 in 12 mi NNE 8.9 mph - -   Scattered Clouds
3:00 PM 84.2 °F 85.0 °F 62.6 °F 48% 29.92 in - NE 15.7 mph - N/A   Clear
3:30 PM 86.0 °F 86.6 °F 62.6 °F 45% 29.89 in - North 13.4 mph - N/A   Clear
4:00 PM 84.2 °F 85.6 °F 64.4 °F 51% 29.89 in - NNE 15.7 mph - N/A   Clear
4:30 PM 86.0 °F 86.6 °F 62.6 °F 45% 29.89 in - NNE 13.4 mph - N/A   Clear
5:00 PM 84.2 °F 85.0 °F 62.6 °F 48% 29.89 in - North 13.4 mph - N/A   Clear
5:30 PM 84.2 °F 85.0 °F 62.6 °F 48% 29.86 in - NNE 13.4 mph - N/A   Clear
6:00 PM 85 °F - 63 °F 38% 29.84 in 12 mi NNE 8.9 mph - -   Scattered Clouds
6:00 PM 84.2 °F 85.0 °F 62.6 °F 48% 29.86 in - NNE 11.2 mph - N/A   Clear
6:30 PM 84.2 °F 85.6 °F 64.4 °F 51% 29.86 in - NNE 13.4 mph - N/A   Clear
7:00 PM 82.4 °F 83.4 °F 62.6 °F 51% 29.86 in - NNE 13.4 mph - N/A   Clear
7:30 PM 82.4 °F 83.9 °F 64.4 °F 54% 29.86 in - North 13.4 mph - N/A   Clear
8:00 PM 80.6 °F 81.8 °F 62.6 °F 54% 29.86 in - North 8.9 mph - N/A   Clear
8:30 PM 80.6 °F 81.5 °F 60.8 °F 51% 29.89 in 6.2 mi North 11.2 mph - N/A   Scattered Clouds
9:00 PM 80 °F - 63 °F 47% 29.86 in 12 mi North 6.7 mph - -   Partly Cloudy
9:00 PM 78.8 °F - 60.8 °F 54% 29.89 in 6.2 mi North 6.7 mph - N/A   Scattered Clouds
9:30 PM 77.0 °F - 60.8 °F 57% 29.89 in 6.2 mi NNE 6.7 mph - N/A   Mostly Cloudy
9:54 PM 77.0 °F - 62.6 °F 61% 29.89 in 6.2 mi ENE 13.4 mph - N/A Thunderstorm Mostly Cloudy
10:00 PM 75.2 °F - 60.8 °F 61% 29.89 in 6.2 mi East 11.2 mph - N/A Thunderstorm Mostly Cloudy
10:30 PM 75.2 °F - 59.0 °F 57% 29.89 in 6.2 mi NNE 8.9 mph - N/A Thunderstorm Mostly Cloudy
10:53 PM 75.2 °F - 59.0 °F 57% 29.89 in 6.2 mi North 13.4 mph - N/A   Scattered Clouds
11:00 PM 75.2 °F - 59.0 °F 57% 29.89 in 6.2 mi NNE 13.4 mph - N/A   Scattered Clouds
11:30 PM 73.4 °F - 59.0 °F 61% 29.89 in 6.2 mi NNE 8.9 mph - N/A   Scattered Clouds